Vorticity
-1 -0 -1 -0 -0 -1 1 0 2 3 5 6 9 8 5 15 8 1 5 -0 1 3 2 2 3 3 -0 -3 -4 -3 0 2 -0 -2 -1 -1 1 2 1 -0 0 1 2 3 1 -0 4 7 9 13 14 11 10 9 8 5 3 4 4 3 3 3 3 4 4 7 8 7 7 4 4 6 6 5 5 5 4 5 6 6 4 -0 -1 3 5 7 9 8 5 3 5 8 10 10 8 6 5
-4 -3 -3 -2 -3 -2 -1 -3 0 0 1 3 5 4 6 21 14 1 5 -1 -4 3 6 3 2 2 0 -2 -6 -6 -2 1 1 1 -0 -1 -1 -0 1 -1 -1 6 10 7 1 1 6 10 12 14 13 12 11 9 6 4 3 4 3 3 3 3 2 3 4 7 9 7 6 5 5 6 6 5 5 5 5 5 5 6 4 2 1 1 4 6 8 9 8 6 4 5 8 10 10 8 6
-4 -4 -5 -4 -5 -4 -3 -3 -2 -2 -1 1 0 -1 4 15 17 10 6 0 -5 -1 5 4 3 2 0 -0 -2 -2 0 2 2 2 0 -1 -1 -2 -0 0 7 17 12 2 -0 4 10 12 13 13 13 13 11 8 5 3 4 4 3 4 4 3 3 3 5 7 7 6 5 6 6 5 5 5 5 6 6 6 5 6 5 5 4 1 2 5 7 8 9 9 6 4 5 7 10 11 8
-1 -2 -2 -3 -3 -3 -3 -2 -2 -0 0 -1 -3 -6 0 7 14 14 8 7 1 -2 1 0 2 2 1 0 0 2 3 4 2 2 0 -1 -1 -2 1 6 14 12 0 -2 2 8 11 12 13 12 13 13 10 6 4 4 4 4 4 4 4 4 4 3 5 6 6 6 5 5 4 4 4 5 5 6 6 7 6 6 6 7 6 3 2 4 7 8 8 9 8 5 3 4 7 10 11
7 5 5 3 3 3 2 3 1 2 -2 -3 -3 -6 0 3 9 12 8 12 9 5 1 -1 1 2 1 -1 1 3 3 3 2 3 1 0 -1 -1 3 4 3 -3 -5 0 4 10 11 11 13 12 12 12 9 5 3 4 4 4 4 4 5 5 4 4 4 5 6 5 4 3 2 3 4 5 6 6 7 8 8 7 6 7 7 4 3 4 6 8 8 8 9 9 5 3 4 6 10
12 11 11 9 9 8 7 7 3 2 -2 0 1 2 10 -1 -1 6 5 10 13 13 7 3 2 1 2 1 4 4 1 0 0 2 1 -0 -2 0 4 -0 -4 -5 -1 1 4 10 10 11 13 10 12 11 8 4 3 4 5 5 5 5 6 5 4 4 4 5 5 1 0 1 2 5 5 6 7 6 7 8 9 8 6 6 6 5 4 5 7 8 8 7 8 10 9 6 4 4 6
13 13 13 11 13 11 9 8 5 4 2 7 4 10 21 4 -3 1 0 5 10 14 12 10 6 3 3 3 6 2 -1 -1 0 2 -0 -1 -1 3 6 2 -1 -0 1 2 6 10 9 12 12 10 12 10 6 4 4 5 5 6 4 5 6 5 4 3 5 4 1 -1 -1 2 6 8 6 5 7 6 6 7 7 6 6 7 7 5 5 7 7 8 9 7 7 9 9 9 7 5 5
12 13 13 11 13 12 13 12 10 10 7 11 10 14 19 10 6 1 -1 2 5 11 11 11 9 8 7 5 4 -1 -0 2 4 4 1 2 4 5 4 3 3 3 5 7 10 10 11 12 10 10 11 8 5 3 4 6 6 5 5 6 6 4 4 3 4 2 -1 -1 -0 4 9 10 5 3 5 6 6 7 7 7 7 7 7 5 7 11 8 6 8 7 7 8 8 9 8 7 5
10 11 13 12 13 11 12 13 13 14 13 14 10 12 12 12 14 4 2 4 3 8 9 10 9 9 10 8 2 1 3 4 5 3 2 4 3 2 2 4 5 8 10 12 14 12 11 11 10 10 9 7 4 3 5 6 6 5 6 6 5 4 4 4 4 1 -1 -0 3 8 11 9 4 -0 4 7 6 6 7 8 8 7 6 5 9 12 8 6 7 6 7 8 8 7 7 7 5
7 8 10 11 13 12 12 13 14 14 15 14 8 10 10 12 17 7 3 5 4 6 7 9 8 8 10 8 4 5 8 6 4 2 2 2 0 2 4 7 9 13 13 12 14 13 11 9 9 9 8 6 3 4 6 6 5 6 6 5 4 4 4 4 2 -0 -0 3 7 10 10 9 4 0 4 7 7 7 7 8 8 7 7 7 9 8 6 6 6 6 6 7 8 8 7 6 5
6 6 7 8 9 10 13 13 14 14 14 15 13 13 9 10 15 9 3 3 5 6 6 8 7 6 7 6 4 5 6 5 4 2 1 0 2 6 8 9 10 12 13 14 14 11 9 8 8 8 8 6 3 5 6 5 6 6 5 4 4 4 4 2 0 0 3 8 9 8 8 8 4 2 3 6 8 7 6 7 8 6 6 7 8 5 3 4 5 5 5 5 8 9 8 8 7
6 5 6 7 7 6 9 10 11 12 13 15 16 14 9 6 9 10 8 3 4 7 6 7 7 5 6 4 3 4 4 4 2 -1 -1 3 8 10 10 12 12 10 12 15 13 9 8 7 7 8 8 6 5 5 5 5 5 5 4 4 5 4 2 1 1 4 8 10 6 5 7 5 4 3 4 5 7 8 6 6 7 6 5 6 8 7 5 4 4 5 6 5 5 8 9 9 9
6 6 6 6 5 5 6 7 8 8 10 12 12 11 10 8 8 10 10 4 2 7 7 5 5 4 5 3 3 4 4 2 -1 -0 4 9 12 12 11 13 15 13 12 13 10 9 8 6 7 8 8 7 6 5 4 5 5 5 5 6 5 2 1 1 4 6 10 8 2 2 4 3 4 4 5 6 5 7 7 6 8 7 5 5 7 7 7 6 4 5 8 7 4 6 8 7 8
6 6 6 6 5 5 5 6 6 6 8 9 9 11 13 13 13 9 7 6 4 6 8 5 4 3 1 2 2 2 1 -1 1 6 9 12 14 14 12 12 14 13 12 11 8 8 8 6 7 7 7 6 6 6 6 6 6 6 6 5 2 1 1 3 6 7 9 5 -1 1 3 3 4 4 5 6 5 5 6 6 9 9 6 5 6 6 6 8 7 5 8 11 7 4 6 7 6
7 6 6 6 5 5 6 6 6 6 7 8 8 11 13 15 16 14 12 12 6 5 6 4 3 2 1 2 2 0 0 2 6 10 11 15 14 12 12 12 12 13 12 9 7 8 8 8 7 6 6 5 5 6 7 7 6 6 5 2 1 2 3 5 7 8 9 3 -2 -0 2 3 4 4 4 5 6 5 4 5 8 10 7 5 6 7 6 7 8 5 5 10 11 6 5 6 5
7 6 6 5 5 6 7 7 7 8 8 7 7 9 11 12 14 17 19 16 10 6 5 2 1 2 2 2 2 3 4 7 10 12 15 16 11 8 11 13 11 11 9 7 9 8 7 8 7 6 7 7 8 7 6 5 5 5 4 2 3 5 6 6 7 10 7 1 -1 1 3 4 4 4 4 6 6 5 4 5 8 8 6 5 6 8 8 7 7 6 2 5 10 10 6 6 5
7 6 6 6 6 7 7 7 9 10 8 6 7 8 9 9 10 13 16 18 17 12 7 3 -0 1 2 1 4 6 6 9 11 14 16 12 7 9 12 13 11 9 7 8 10 8 7 9 7 5 5 7 7 7 6 6 6 5 5 5 6 6 6 6 7 10 6 2 1 2 4 4 4 4 5 6 5 4 5 5 7 7 5 4 6 7 7 7 8 7 4 2 7 11 9 7 7
7 7 6 6 8 9 8 7 9 9 7 6 6 7 8 8 9 10 11 14 18 16 14 10 6 6 5 4 5 6 9 10 11 13 12 8 8 11 11 11 10 7 6 7 8 7 8 8 7 5 5 5 5 6 7 7 7 6 5 6 6 6 5 5 6 8 6 3 2 3 4 5 5 5 5 6 5 4 5 6 6 7 7 6 7 7 7 7 8 9 9 4 5 10 9 7 8
6 8 6 6 9 9 8 7 8 9 8 6 6 6 7 7 7 10 11 12 14 15 15 13 12 10 9 9 7 9 12 9 9 10 8 9 12 11 8 7 7 5 4 6 5 6 8 8 7 6 5 6 6 6 6 6 6 5 5 6 6 5 4 4 4 4 4 3 3 4 5 5 6 6 5 5 5 4 5 6 6 6 7 8 6 7 9 8 7 10 11 8 5 7 8 7 7
5 7 7 7 8 8 8 8 8 8 7 6 6 6 6 6 7 8 10 11 11 11 10 10 10 9 10 10 10 12 11 6 6 8 8 11 11 9 8 7 8 6 5 6 5 4 7 8 8 7 5 5 6 6 5 5 5 4 5 5 5 4 3 3 4 4 3 3 4 5 5 5 6 5 4 5 6 5 4 5 6 7 7 7 6 5 9 9 8 10 12 11 9 7 7 7 7
8 6 8 9 8 7 8 7 7 7 6 6 5 6 6 5 6 6 7 11 12 9 8 8 8 9 10 9 11 12 7 5 6 6 8 9 7 8 11 11 9 8 8 8 5 3 5 7 9 8 7 5 5 5 6 6 5 4 5 4 4 4 3 2 4 5 5 4 5 5 4 4 4 4 4 5 7 6 5 5 6 7 7 7 6 5 7 8 7 8 10 11 11 10 7 7 7
10 7 7 8 9 8 8 7 7 7 6 6 5 5 6 5 5 4 4 8 8 6 5 5 6 8 8 8 10 9 5 6 8 6 7 6 4 5 7 9 8 6 7 7 6 4 4 6 8 9 8 7 6 5 7 7 6 4 5 4 3 3 4 3 3 6 6 4 5 4 3 3 3 4 5 6 7 7 6 6 7 7 7 7 6 6 6 7 5 4 7 9 10 10 9 9 9
11 8 8 9 9 8 8 8 7 8 7 6 6 5 5 5 6 5 5 6 5 3 3 3 5 5 4 8 8 5 3 5 10 8 4 6 6 3 1 3 4 5 7 7 6 3 2 5 7 8 8 7 6 6 8 8 6 5 4 4 3 3 4 4 5 6 5 4 4 3 2 3 3 4 5 7 8 8 6 7 8 9 9 8 8 7 7 6 5 3 5 8 9 10 10 11 12
12 6 8 10 9 8 8 8 7 8 7 6 6 5 5 5 5 6 7 7 6 4 3 4 7 6 6 8 7 5 2 2 12 12 4 6 9 5 2 2 2 4 6 6 6 4 3 5 6 7 7 7 7 7 8 8 6 5 5 4 4 4 4 5 6 5 4 4 4 2 2 3 4 6 7 8 8 7 7 8 9 10 11 10 9 9 8 7 5 3 4 7 8 8 9 10 13
13 5 5 10 10 9 8 7 7 7 6 6 6 6 5 5 4 6 8 6 3 2 4 6 6 5 5 4 4 5 2 3 13 12 6 5 5 5 4 3 4 4 5 6 7 7 6 6 7 8 8 7 8 8 9 7 6 5 5 5 5 5 5 5 6 5 4 4 3 2 2 3 5 7 8 8 8 7 7 8 9 9 10 10 9 9 9 8 7 6 6 6 6 4 5 6 8
14 6 3 7 8 8 8 7 7 6 6 6 6 6 6 5 4 5 7 5 2 3 5 5 5 3 2 4 7 9 8 11 16 13 9 8 4 4 5 5 7 6 6 7 7 8 8 8 7 8 8 7 7 8 8 7 5 5 5 6 6 5 5 6 5 4 5 4 2 1 2 4 7 8 7 7 7 7 7 7 7 7 8 9 9 9 9 9 9 10 9 7 5 4 4 4 4
13 9 3 3 7 9 9 8 8 7 6 6 6 6 6 5 6 6 5 5 3 5 5 4 4 3 4 8 13 15 14 15 15 12 10 9 8 7 8 9 9 8 6 7 9 10 10 9 8 8 8 8 7 7 7 7 6 6 6 6 6 7 7 6 5 5 5 3 1 1 3 5 8 7 7 8 8 7 7 7 7 6 7 8 8 9 10 9 9 11 11 8 6 6 6 5 4
13 10 4 3 7 8 9 10 9 8 7 7 5 6 6 5 7 7 5 4 4 5 5 6 6 6 8 10 10 11 12 10 7 8 7 6 8 9 10 10 9 8 7 7 9 11 12 10 8 9 8 8 8 7 7 7 7 7 6 6 7 8 7 5 5 5 4 2 1 2 5 7 7 7 8 9 8 6 6 7 6 6 7 8 8 10 11 11 11 13 13 11 9 8 7 6 4
13 9 4 5 7 6 9 11 9 8 8 6 5 6 5 6 7 7 5 3 3 5 5 5 6 8 8 4 3 5 9 11 7 6 6 2 3 6 6 7 6 7 6 5 5 7 11 11 8 8 8 8 7 7 7 7 8 7 6 7 8 8 6 6 6 5 3 2 1 3 6 7 7 7 8 8 7 6 7 7 6 7 7 7 8 9 10 11 14 14 12 12 11 9 9 8 7
13 9 3 5 7 5 8 12 10 9 8 5 7 7 3 5 7 6 5 3 4 6 6 8 10 11 8 2 4 6 7 11 9 6 6 2 2 1 1 2 3 4 4 4 4 3 5 8 8 6 7 8 8 9 9 8 8 7 7 8 8 7 6 6 6 5 3 2 2 4 6 6 6 7 8 7 7 7 7 6 5 6 7 7 8 9 8 7 10 10 8 12 12 12 14 13 10
13 8 3 4 6 6 8 10 10 10 9 6 8 9 3 4 7 6 6 5 6 8 6 10 13 10 7 6 6 7 9 11 8 8 8 4 1 2 3 4 5 5 5 4 4 2 2 5 7 7 7 8 10 10 9 9 8 8 9 9 8 7 7 6 5 4 3 3 3 5 6 6 7 8 8 7 7 7 7 7 7 8 8 8 9 9 7 3 3 4 4 6 8 10 15 17 15
12 10 5 2 4 8 9 9 10 10 9 7 7 8 4 4 8 8 7 6 4 7 7 9 11 8 8 9 5 6 12 12 8 8 9 4 3 6 7 7 6 5 5 4 4 4 4 5 6 7 8 8 9 11 10 9 9 9 9 9 8 7 6 5 4 3 3 4 4 5 5 6 7 8 8 8 8 7 8 8 9 8 4 3 4 4 3 1 1 3 4 3 4 6 10 13 14
12 10 6 2 3 9 9 9 13 9 6 7 5 7 5 3 7 7 7 8 5 6 7 8 9 8 10 8 2 6 12 11 8 7 7 7 6 6 5 4 3 4 5 6 5 6 6 7 10 12 11 9 8 9 10 10 10 10 9 8 8 6 6 5 4 3 4 4 4 5 5 7 8 8 8 8 8 8 8 8 8 6 2 2 3 4 4 4 5 5 5 5 5 5 7 8 9
12 12 7 2 3 9 7 8 15 7 3 6 5 8 8 3 5 6 7 10 10 8 6 9 10 7 9 8 1 3 9 9 7 7 8 8 6 5 6 4 2 4 7 8 6 5 4 7 15 21 16 7 4 6 8 10 10 10 9 8 7 6 6 4 3 3 3 4 5 6 6 8 9 8 8 8 9 9 8 9 8 7 7 7 6 7 8 7 7 6 5 6 6 6 7 8 8
15 13 9 2 2 10 8 6 14 10 2 3 5 9 10 6 4 5 6 6 7 7 6 9 8 5 6 6 1 0 6 10 9 9 9 9 7 8 8 4 3 6 8 7 6 5 4 5 13 23 21 9 6 7 8 9 9 8 8 7 6 6 5 3 3 4 4 4 5 7 8 9 9 8 8 9 9 9 8 8 8 9 9 9 8 8 8 7 7 7 6 6 6 6 7 8 8
15 12 9 4 1 8 10 5 11 14 6 0 2 7 10 8 4 4 5 4 3 4 6 10 8 6 7 4 -1 -2 3 10 11 10 11 11 11 11 10 7 7 9 9 7 6 6 7 6 8 18 25 19 12 9 7 8 8 7 7 6 6 5 4 3 4 5 4 5 6 8 9 9 8 8 8 8 8 7 7 7 8 8 8 8 8 7 7 7 7 7 8 8 7 6 6 8 8
14 11 8 7 1 4 11 7 7 15 15 5 -0 4 10 10 7 6 5 4 5 5 9 13 7 1 5 7 2 0 6 8 8 9 11 12 12 12 10 8 8 10 10 8 6 7 8 9 9 15 24 21 11 7 7 8 7 7 7 6 5 4 4 5 5 5 5 6 7 8 9 9 8 8 8 7 7 6 6 7 7 7 7 7 7 6 6 7 7 7 7 8 8 9 9 9 9
15 12 8 8 6 4 8 9 6 9 15 12 4 3 6 9 10 8 5 4 5 7 8 14 16 4 4 15 10 3 7 7 7 10 10 11 9 9 8 8 10 11 9 7 7 8 7 8 11 14 17 14 9 7 8 8 7 7 6 5 4 5 5 5 5 6 5 6 8 9 8 8 8 8 7 7 7 7 7 7 7 7 7 8 7 6 6 6 6 6 5 6 7 9 11 10 10
14 15 9 5 8 8 6 8 7 5 9 14 14 10 6 7 9 6 4 1 0 7 8 12 23 13 5 15 12 4 5 5 9 11 8 9 7 8 10 10 12 11 8 8 7 7 7 9 16 18 15 13 11 9 7 7 7 6 5 4 5 6 6 5 5 6 6 7 9 9 8 7 7 7 7 7 7 7 7 6 6 7 7 7 7 6 6 6 5 5 5 5 5 6 8 9 9
12 15 11 3 6 10 8 8 7 6 7 8 11 14 11 8 9 8 4 1 1 7 13 12 10 8 12 20 13 6 6 4 9 12 8 9 7 8 11 11 11 9 6 6 5 6 9 15 22 20 14 12 9 5 5 6 5 4 4 5 5 6 6 5 5 6 6 8 10 10 8 7 7 7 7 7 7 7 6 6 6 6 5 6 7 7 6 6 6 6 6 5 5 5 7 8 8
12 15 12 5 5 7 9 9 6 5 4 2 1 4 11 11 12 14 7 5 7 5 14 11 1 17 33 29 16 5 4 6 7 9 11 13 12 9 10 10 8 6 4 4 5 9 12 16 22 18 11 6 2 2 5 5 4 3 4 5 5 5 5 5 6 6 7 9 10 8 6 6 7 7 7 7 7 6 5 6 5 5 5 5 7 8 7 7 7 7 7 7 7 8 10 12 12
12 15 12 6 8 7 6 7 6 6 5 5 4 1 9 13 12 16 8 7 10 8 15 7 2 25 23 9 17 6 -4 7 6 2 9 15 15 13 11 10 7 5 5 5 6 10 10 12 18 17 7 -1 -2 4 7 5 4 4 4 5 5 5 5 4 5 6 7 9 9 7 5 6 7 7 7 7 7 6 5 5 4 5 5 5 7 8 8 9 8 7 6 7 10 13 15 17 19
12 16 13 6 9 8 3 5 9 13 13 11 10 7 12 14 11 11 8 8 9 8 16 11 12 31 10 -9 13 10 -5 3 2 -1 6 13 16 16 13 10 7 5 5 5 6 8 6 5 13 17 12 6 5 9 10 5 3 3 4 4 5 5 4 4 5 6 8 9 8 7 6 6 7 7 7 8 7 6 5 4 4 5 5 5 6 8 9 8 7 6 7 10 15 19 19 21 25
13 17 14 6 10 10 2 4 11 16 16 11 11 12 12 13 10 8 7 9 9 6 10 8 10 21 4 -15 0 11 7 4 1 1 8 14 18 21 19 14 10 7 6 6 6 7 4 2 6 12 13 9 8 11 9 3 1 2 4 4 4 5 4 5 7 8 9 9 8 7 7 7 7 7 8 8 7 6 5 4 4 5 5 6 7 7 8 8 7 7 10 16 21 23 22 21 23
15 19 14 6 9 9 2 5 9 11 11 9 11 11 8 10 10 9 8 7 10 8 5 4 6 11 5 -10 -6 9 9 2 2 6 10 14 12 15 18 15 11 9 8 6 3 4 5 4 6 11 13 8 8 10 5 -2 1 5 5 5 5 5 5 6 7 9 10 10 10 8 7 7 7 7 8 8 7 6 5 4 4 5 5 5 5 6 7 8 8 8 13 21 24 20 19 21 22
17 19 14 6 5 6 2 3 7 7 6 7 10 8 6 8 9 10 10 8 10 12 8 4 6 11 5 -10 -8 4 3 2 6 3 2 3 0 5 11 10 10 9 7 7 4 4 7 8 9 11 11 8 8 7 1 -1 4 7 6 5 5 4 5 6 6 9 10 9 9 7 6 6 6 7 7 8 7 6 5 5 4 5 4 4 4 5 7 7 7 8 16 24 23 13 12 21 24
16 17 15 8 4 4 2 1 6 7 5 9 12 7 4 5 7 8 7 7 8 10 10 4 4 11 8 -0 7 13 4 2 4 -2 -2 1 2 8 6 4 10 11 9 8 7 8 10 10 10 8 3 0 3 4 2 4 6 6 6 4 4 4 4 6 7 8 10 10 9 7 7 6 6 6 6 7 7 6 5 5 4 4 3 4 5 5 5 6 7 8 16 24 20 10 11 22 25
14 15 15 11 6 5 4 1 3 6 6 13 13 5 1 2 5 7 5 6 6 5 10 8 7 12 11 11 21 16 2 -0 2 1 2 1 3 9 4 -2 4 11 13 11 10 10 8 8 10 7 3 1 4 5 5 6 7 6 6 4 4 5 5 7 9 11 11 10 8 7 7 6 6 6 6 7 7 6 6 5 4 4 5 6 6 5 5 6 7 8 17 22 17 10 13 23 25
12 12 13 12 8 6 4 1 1 3 5 14 14 3 -0 -0 4 7 6 8 7 3 8 10 8 10 9 12 17 9 -2 -2 -1 2 4 2 4 10 12 7 5 12 15 10 9 10 6 6 8 6 5 5 5 6 6 7 7 6 6 5 5 5 6 8 10 11 11 10 7 6 7 7 7 7 6 7 6 6 6 6 6 6 6 7 5 4 4 7 7 8 17 22 17 11 13 23 24
8 10 13 12 9 7 6 4 2 1 4 12 14 5 -0 -0 4 8 7 9 9 5 6 5 1 3 4 4 7 4 -0 -2 -1 1 2 3 5 9 13 15 13 13 13 8 6 9 7 6 8 7 4 4 4 6 7 7 6 6 5 6 6 5 6 7 8 10 10 9 7 6 6 7 7 7 7 7 6 6 6 7 7 6 6 6 5 4 3 7 8 7 15 22 20 15 14 21 22
10 11 12 11 10 9 9 9 6 3 3 9 13 5 0 1 4 7 8 9 10 9 7 6 3 3 1 -2 -1 1 1 -0 0 2 0 2 7 8 9 14 14 11 11 11 11 13 12 8 7 6 3 3 5 6 7 6 6 6 6 6 7 6 6 7 8 10 11 11 8 6 6 6 6 7 7 7 7 6 7 7 7 6 6 6 6 5 3 6 9 8 12 18 21 21 16 15 18
10 8 6 8 13 13 11 11 10 8 4 7 11 5 0 1 3 6 8 8 11 10 8 7 5 5 5 -0 -4 -2 3 3 1 2 2 2 6 7 7 10 10 10 10 12 14 17 16 10 6 4 3 5 6 6 6 6 6 6 6 7 7 6 7 8 9 10 11 11 9 8 7 6 6 6 7 8 7 6 7 8 8 7 7 6 6 6 4 5 8 8 11 15 19 26 23 14 14
8 4 4 12 18 13 9 10 9 10 7 5 8 6 2 1 3 6 7 7 8 8 9 11 7 5 4 -2 -3 1 5 5 4 3 1 2 5 7 8 8 9 12 12 11 13 14 12 10 7 4 4 5 5 6 6 6 6 6 5 6 6 6 7 8 8 9 9 10 10 9 8 7 7 6 7 8 7 7 7 7 8 7 6 7 6 7 6 5 7 8 9 12 16 25 30 21 14
7 5 8 15 12 5 8 9 6 7 6 5 9 9 4 1 2 5 4 2 1 4 14 17 9 4 2 -0 1 0 -2 2 4 3 3 4 5 6 8 9 8 10 10 8 8 7 6 5 4 3 4 5 6 6 6 6 5 4 5 6 6 6 6 7 7 7 8 9 9 9 9 8 8 7 7 8 7 7 7 7 8 7 6 6 6 7 7 5 6 8 7 9 12 18 25 24 17
7 8 9 9 4 3 8 8 6 6 4 5 10 10 7 2 2 6 5 3 3 8 19 19 8 4 2 0 1 -3 -1 9 8 2 0 -2 0 7 12 13 12 11 9 7 6 5 3 2 2 3 5 6 6 6 6 5 4 5 6 6 5 5 5 5 6 7 8 9 9 9 9 9 8 8 7 7 8 7 7 7 7 7 6 6 5 6 7 7 6 7 8 7 10 13 17 23 22
6 7 8 6 5 7 8 6 8 8 4 5 8 10 10 5 4 9 9 7 10 17 24 21 11 5 0 -1 1 0 3 9 7 4 2 -1 6 13 9 6 7 8 8 9 8 5 4 4 5 6 6 6 7 6 5 5 5 6 5 4 4 4 4 5 6 7 9 10 10 10 10 9 8 8 8 8 8 8 7 7 7 6 5 5 5 5 7 8 7 7 8 6 7 10 13 18 22
5 4 6 6 5 8 8 7 8 7 6 6 5 6 9 7 8 10 6 4 8 12 15 17 13 6 1 1 2 3 4 3 5 8 6 3 8 8 -0 -1 4 5 5 9 11 9 6 5 6 6 7 8 7 6 5 5 4 4 4 4 5 5 5 6 7 7 8 10 10 10 10 10 9 9 9 9 9 9 8 8 7 6 5 4 5 6 6 7 8 7 8 7 6 8 10 13 16
9 8 10 8 5 6 8 8 8 8 7 6 5 4 6 8 8 5 1 5 12 9 3 5 8 5 3 2 2 6 8 6 7 11 8 5 4 1 -1 2 4 3 4 7 9 9 8 6 5 5 7 8 7 6 4 4 4 4 4 5 6 6 6 7 8 7 8 9 10 10 9 9 9 9 9 10 10 10 9 8 8 6 6 5 4 5 5 6 7 7 7 8 7 6 7 10 13
Height
5844 5845 5846 5847 5848 5850 5850 5852 5853 5854 5856 5857 5861 5865 5868 5869 5869 5867 5867 5868 5868 5869 5868 5868 5869 5870 5871 5871 5872 5871 5872 5872 5873 5873 5873 5872 5872 5873 5873 5873 5873 5873 5873 5872 5871 5871 5871 5871 5870 5869 5868 5868 5867 5867 5866 5866 5866 5866 5867 5867 5866 5866 5866 5865 5865 5864 5864 5864 5863 5862 5862 5861 5860 5859 5858 5857 5856 5856 5855 5855 5854 5853 5853 5852 5851 5850 5849 5848 5848 5847 5847 5846 5845 5845 5845 5844 5844
5842 5842 5844 5845 5846 5847 5847 5849 5850 5851 5853 5854 5858 5863 5866 5868 5868 5866 5865 5866 5866 5867 5867 5866 5867 5869 5870 5870 5870 5870 5870 5870 5872 5872 5871 5871 5871 5871 5871 5871 5872 5872 5871 5871 5871 5870 5870 5870 5869 5868 5868 5867 5866 5866 5865 5865 5866 5866 5866 5866 5866 5866 5865 5865 5865 5864 5864 5863 5863 5862 5862 5861 5860 5859 5858 5857 5856 5856 5855 5854 5854 5853 5853 5852 5851 5850 5849 5848 5847 5847 5846 5846 5845 5845 5845 5844 5844
5839 5840 5841 5842 5843 5844 5844 5846 5847 5848 5849 5851 5855 5861 5865 5866 5866 5864 5863 5864 5864 5865 5865 5865 5866 5867 5868 5869 5869 5868 5868 5869 5870 5871 5870 5869 5869 5870 5870 5870 5870 5870 5870 5870 5870 5869 5870 5869 5868 5867 5867 5866 5865 5865 5865 5865 5865 5866 5865 5865 5865 5865 5865 5865 5864 5864 5863 5863 5863 5862 5862 5861 5860 5859 5858 5857 5856 5855 5855 5854 5854 5853 5853 5852 5851 5850 5849 5848 5847 5846 5846 5845 5845 5845 5844 5844 5843
5836 5837 5838 5840 5840 5841 5841 5842 5844 5845 5846 5849 5852 5859 5864 5863 5863 5862 5860 5861 5862 5863 5864 5864 5864 5865 5866 5867 5866 5866 5867 5868 5869 5868 5868 5868 5868 5868 5869 5870 5869 5869 5869 5869 5869 5869 5869 5868 5867 5866 5866 5865 5864 5864 5864 5865 5865 5865 5865 5865 5865 5865 5865 5864 5864 5863 5863 5863 5862 5862 5862 5861 5860 5859 5858 5857 5856 5855 5855 5854 5853 5853 5852 5852 5851 5850 5849 5847 5847 5846 5845 5845 5844 5844 5844 5844 5843
5832 5834 5835 5837 5837 5837 5838 5838 5840 5842 5844 5848 5849 5856 5862 5860 5860 5860 5857 5858 5860 5861 5862 5863 5863 5863 5864 5865 5864 5865 5865 5866 5867 5866 5866 5866 5867 5867 5868 5868 5868 5868 5868 5868 5868 5868 5868 5867 5866 5866 5865 5864 5864 5864 5864 5864 5864 5864 5864 5864 5864 5864 5864 5863 5863 5862 5862 5862 5862 5862 5861 5861 5860 5859 5858 5857 5856 5855 5855 5854 5853 5852 5852 5851 5850 5849 5848 5847 5846 5845 5844 5844 5844 5843 5843 5843 5843
5829 5830 5832 5833 5834 5834 5834 5834 5837 5839 5843 5847 5847 5852 5859 5858 5856 5856 5855 5855 5858 5859 5859 5861 5861 5861 5862 5862 5862 5863 5864 5865 5865 5864 5864 5865 5866 5866 5867 5867 5867 5867 5867 5866 5867 5867 5866 5866 5865 5865 5864 5864 5864 5864 5864 5864 5864 5864 5864 5863 5863 5863 5863 5862 5862 5862 5862 5862 5862 5861 5861 5860 5859 5859 5858 5857 5856 5855 5854 5853 5852 5852 5851 5850 5850 5849 5848 5847 5846 5845 5844 5843 5843 5843 5842 5842 5842
5825 5827 5828 5830 5830 5831 5831 5832 5835 5838 5841 5844 5845 5849 5855 5854 5851 5852 5854 5854 5856 5857 5857 5858 5859 5860 5860 5860 5860 5861 5862 5863 5863 5862 5863 5864 5865 5866 5866 5866 5866 5865 5865 5865 5865 5865 5865 5865 5864 5864 5864 5864 5864 5864 5864 5863 5863 5863 5863 5863 5863 5862 5862 5861 5861 5862 5862 5861 5861 5860 5860 5860 5859 5858 5857 5857 5856 5855 5854 5853 5852 5851 5850 5850 5849 5849 5848 5847 5846 5844 5843 5843 5842 5842 5842 5841 5841
5822 5823 5825 5826 5827 5828 5828 5830 5834 5836 5839 5842 5843 5846 5850 5850 5847 5848 5851 5851 5854 5855 5854 5855 5856 5858 5858 5857 5859 5860 5861 5861 5861 5861 5862 5863 5864 5865 5865 5864 5864 5864 5864 5863 5863 5864 5864 5864 5863 5863 5863 5863 5863 5863 5863 5863 5863 5862 5862 5862 5862 5861 5861 5861 5861 5861 5861 5861 5860 5860 5860 5859 5859 5858 5857 5856 5856 5855 5854 5853 5852 5851 5850 5849 5848 5848 5847 5846 5845 5844 5843 5842 5842 5841 5841 5841 5840
5819 5820 5822 5823 5824 5825 5826 5829 5833 5835 5838 5839 5839 5842 5845 5845 5844 5843 5846 5848 5851 5852 5852 5853 5854 5855 5855 5856 5858 5859 5860 5860 5859 5860 5861 5863 5863 5863 5862 5862 5862 5862 5862 5862 5862 5863 5863 5863 5862 5862 5863 5863 5863 5862 5862 5862 5862 5862 5861 5861 5861 5860 5860 5860 5861 5861 5861 5860 5860 5859 5859 5859 5858 5857 5857 5856 5855 5854 5853 5852 5851 5851 5850 5849 5848 5847 5847 5846 5845 5844 5843 5842 5841 5841 5840 5840 5840
5816 5817 5819 5820 5821 5822 5825 5828 5831 5833 5834 5835 5835 5838 5841 5841 5840 5839 5841 5844 5847 5849 5850 5851 5852 5853 5853 5855 5857 5858 5858 5858 5858 5859 5861 5862 5861 5861 5860 5860 5860 5860 5860 5860 5861 5861 5862 5862 5861 5862 5862 5862 5862 5861 5862 5861 5861 5861 5860 5860 5860 5860 5860 5860 5860 5860 5860 5860 5859 5859 5858 5858 5857 5857 5856 5855 5855 5854 5853 5852 5851 5850 5849 5848 5848 5847 5846 5846 5845 5844 5843 5842 5841 5840 5840 5840 5839
5813 5815 5816 5817 5818 5820 5823 5826 5828 5829 5829 5830 5832 5835 5837 5837 5836 5836 5838 5840 5843 5847 5848 5849 5850 5851 5852 5854 5856 5857 5856 5856 5857 5859 5860 5860 5859 5859 5858 5858 5858 5858 5858 5858 5859 5860 5860 5861 5861 5861 5861 5861 5860 5860 5860 5860 5860 5859 5859 5859 5859 5859 5859 5860 5859 5859 5859 5859 5859 5858 5858 5857 5856 5856 5855 5855 5854 5853 5852 5851 5850 5850 5849 5848 5847 5846 5846 5845 5844 5844 5843 5842 5841 5840 5840 5839 5839
5810 5812 5814 5814 5816 5819 5821 5824 5825 5826 5826 5828 5830 5831 5832 5832 5832 5834 5836 5837 5840 5844 5846 5847 5848 5849 5851 5853 5854 5854 5854 5855 5856 5857 5857 5858 5857 5856 5856 5856 5856 5856 5857 5857 5858 5859 5859 5860 5860 5859 5859 5859 5859 5859 5859 5859 5859 5858 5858 5858 5858 5859 5859 5859 5859 5859 5858 5858 5858 5857 5857 5856 5856 5855 5854 5854 5853 5852 5851 5850 5849 5849 5848 5847 5847 5846 5845 5844 5844 5843 5842 5841 5840 5840 5839 5839 5838
5807 5809 5811 5812 5814 5817 5819 5821 5823 5823 5824 5825 5825 5826 5828 5828 5830 5833 5834 5834 5837 5841 5844 5845 5847 5848 5850 5851 5851 5852 5853 5854 5855 5855 5855 5855 5855 5854 5854 5854 5854 5855 5855 5856 5857 5857 5858 5858 5858 5858 5858 5858 5858 5858 5858 5858 5857 5857 5857 5858 5858 5858 5858 5858 5858 5858 5858 5857 5857 5857 5856 5855 5855 5854 5853 5852 5852 5851 5850 5849 5848 5848 5847 5847 5846 5845 5845 5844 5843 5842 5841 5841 5840 5839 5839 5838 5837
5804 5806 5808 5809 5812 5815 5817 5819 5820 5820 5820 5821 5822 5824 5825 5827 5829 5831 5831 5832 5835 5838 5841 5842 5844 5846 5848 5849 5850 5850 5851 5852 5853 5853 5853 5853 5853 5852 5852 5852 5852 5853 5854 5854 5855 5856 5857 5857 5857 5857 5857 5857 5857 5857 5857 5857 5856 5856 5857 5857 5857 5857 5857 5857 5857 5857 5857 5857 5856 5856 5855 5854 5854 5853 5852 5851 5851 5850 5849 5848 5847 5847 5846 5846 5845 5845 5844 5843 5842 5841 5841 5840 5839 5839 5838 5837 5836
5801 5803 5805 5807 5810 5813 5815 5816 5817 5817 5817 5818 5820 5822 5824 5826 5827 5828 5830 5831 5833 5835 5837 5839 5842 5844 5846 5848 5848 5848 5849 5850 5851 5851 5851 5851 5851 5850 5850 5851 5851 5851 5852 5853 5854 5855 5856 5856 5856 5856 5856 5856 5856 5856 5856 5856 5856 5856 5856 5856 5856 5856 5856 5856 5856 5856 5856 5856 5855 5855 5854 5853 5853 5852 5851 5851 5850 5849 5848 5847 5846 5846 5845 5845 5844 5844 5843 5842 5842 5841 5840 5839 5839 5838 5837 5837 5836
5797 5800 5802 5805 5808 5811 5813 5814 5814 5814 5814 5816 5818 5821 5822 5824 5825 5827 5829 5830 5831 5833 5835 5837 5840 5842 5845 5846 5845 5846 5847 5848 5849 5849 5848 5849 5849 5849 5849 5849 5850 5850 5851 5852 5853 5854 5854 5855 5855 5855 5855 5855 5855 5855 5855 5855 5855 5855 5856 5856 5856 5856 5856 5856 5855 5855 5855 5855 5855 5854 5853 5852 5852 5851 5850 5850 5849 5848 5847 5846 5845 5845 5844 5844 5843 5843 5842 5842 5841 5840 5839 5839 5838 5837 5837 5836 5835
5794 5797 5799 5803 5807 5809 5810 5811 5811 5811 5812 5814 5816 5819 5820 5822 5823 5825 5826 5828 5829 5831 5833 5835 5838 5841 5842 5842 5842 5844 5844 5846 5847 5847 5847 5847 5847 5847 5848 5848 5849 5850 5851 5852 5852 5853 5853 5853 5854 5854 5854 5854 5854 5854 5854 5854 5854 5855 5855 5855 5855 5855 5855 5855 5855 5854 5854 5854 5854 5853 5853 5852 5851 5850 5849 5849 5848 5847 5846 5845 5844 5844 5843 5842 5842 5841 5841 5841 5840 5839 5839 5838 5837 5836 5836 5835 5834
5791 5794 5797 5802 5805 5806 5807 5807 5807 5808 5809 5812 5814 5817 5818 5820 5821 5823 5824 5826 5827 5829 5832 5834 5836 5838 5839 5839 5840 5841 5842 5844 5845 5845 5845 5845 5845 5846 5847 5847 5848 5849 5850 5850 5851 5851 5852 5852 5852 5852 5853 5853 5853 5853 5853 5853 5854 5854 5854 5854 5854 5854 5854 5854 5854 5854 5853 5853 5853 5852 5852 5851 5850 5850 5849 5848 5847 5846 5845 5844 5843 5843 5842 5841 5841 5840 5840 5839 5839 5838 5837 5837 5836 5835 5835 5834 5833
5788 5791 5796 5800 5802 5803 5803 5804 5805 5806 5807 5810 5812 5814 5816 5818 5819 5821 5822 5824 5826 5827 5830 5832 5834 5836 5836 5837 5838 5839 5841 5842 5843 5843 5843 5843 5844 5845 5846 5846 5847 5848 5848 5849 5850 5850 5850 5851 5851 5851 5851 5851 5852 5852 5852 5852 5852 5853 5853 5853 5853 5853 5853 5853 5853 5853 5853 5852 5852 5852 5851 5850 5850 5850 5849 5848 5846 5845 5844 5843 5843 5842 5841 5840 5839 5839 5838 5838 5837 5836 5836 5835 5835 5834 5834 5833 5833
5785 5789 5794 5798 5798 5799 5800 5801 5802 5803 5805 5807 5810 5812 5814 5815 5817 5819 5820 5822 5823 5826 5828 5830 5832 5833 5834 5835 5836 5838 5839 5840 5841 5841 5841 5842 5843 5844 5844 5845 5846 5846 5847 5848 5848 5848 5849 5849 5849 5850 5850 5850 5851 5851 5851 5851 5851 5852 5852 5852 5852 5852 5852 5852 5852 5852 5852 5852 5851 5851 5850 5850 5850 5849 5849 5848 5846 5845 5843 5842 5841 5841 5840 5839 5838 5837 5837 5836 5835 5835 5834 5834 5833 5833 5833 5832 5832
5783 5787 5792 5794 5795 5796 5797 5798 5799 5801 5803 5805 5807 5809 5811 5812 5814 5816 5818 5819 5821 5824 5826 5828 5829 5830 5831 5833 5834 5836 5838 5838 5839 5839 5840 5841 5842 5842 5843 5843 5844 5845 5846 5846 5847 5847 5848 5848 5848 5848 5849 5849 5850 5850 5850 5850 5850 5851 5851 5851 5851 5851 5851 5851 5851 5851 5851 5851 5851 5850 5850 5850 5849 5848 5848 5847 5846 5844 5843 5841 5840 5840 5839 5838 5837 5836 5835 5835 5834 5833 5833 5832 5832 5831 5831 5831 5831
5780 5785 5789 5790 5791 5793 5794 5795 5797 5798 5800 5802 5805 5806 5808 5810 5812 5814 5815 5817 5819 5821 5823 5824 5826 5827 5829 5831 5832 5834 5835 5836 5836 5837 5838 5839 5840 5841 5842 5842 5843 5844 5845 5845 5846 5846 5846 5847 5847 5847 5848 5848 5849 5849 5849 5849 5850 5850 5850 5850 5850 5850 5850 5850 5850 5850 5850 5850 5850 5850 5849 5849 5848 5847 5846 5846 5845 5844 5843 5841 5840 5839 5838 5836 5835 5834 5834 5833 5833 5832 5832 5831 5830 5829 5829 5829 5829
5778 5783 5785 5787 5789 5790 5791 5793 5794 5796 5798 5800 5802 5804 5806 5808 5810 5811 5813 5814 5816 5818 5820 5821 5823 5825 5826 5828 5830 5831 5833 5834 5834 5835 5836 5837 5838 5839 5840 5841 5842 5843 5843 5844 5845 5845 5845 5846 5846 5846 5847 5847 5848 5848 5848 5849 5849 5849 5849 5849 5849 5849 5849 5849 5849 5849 5849 5849 5849 5848 5848 5847 5847 5846 5845 5844 5844 5843 5842 5841 5839 5838 5836 5835 5834 5833 5832 5832 5831 5831 5830 5830 5829 5828 5828 5827 5827
5775 5779 5782 5784 5786 5787 5789 5790 5792 5794 5795 5797 5799 5801 5803 5806 5808 5810 5811 5812 5814 5816 5818 5819 5821 5823 5824 5826 5828 5829 5830 5831 5832 5833 5835 5836 5837 5838 5839 5840 5841 5842 5842 5843 5844 5844 5844 5844 5845 5845 5846 5846 5846 5847 5847 5847 5848 5848 5848 5848 5848 5848 5848 5848 5848 5848 5848 5848 5848 5847 5847 5846 5845 5844 5843 5843 5842 5842 5841 5840 5838 5837 5835 5834 5832 5831 5830 5830 5829 5829 5829 5829 5828 5827 5826 5826 5825
5772 5777 5779 5781 5783 5784 5785 5787 5789 5791 5793 5795 5797 5799 5801 5803 5806 5808 5809 5810 5812 5814 5816 5818 5819 5821 5822 5824 5826 5827 5829 5830 5831 5832 5833 5835 5836 5837 5838 5838 5839 5840 5841 5841 5842 5842 5842 5842 5843 5843 5844 5844 5845 5845 5846 5846 5846 5847 5846 5846 5846 5847 5847 5847 5847 5847 5847 5847 5846 5846 5845 5844 5843 5843 5842 5841 5840 5840 5839 5839 5837 5836 5834 5833 5831 5830 5829 5828 5828 5828 5828 5827 5826 5825 5825 5824 5823
5770 5773 5775 5777 5779 5780 5782 5785 5787 5789 5790 5793 5795 5797 5799 5801 5804 5806 5807 5808 5810 5812 5814 5815 5817 5818 5820 5822 5824 5826 5827 5828 5829 5831 5833 5834 5835 5836 5836 5837 5838 5839 5839 5840 5840 5840 5840 5840 5841 5841 5842 5842 5843 5844 5844 5844 5845 5845 5845 5845 5845 5845 5845 5846 5846 5846 5846 5846 5845 5844 5843 5843 5842 5841 5840 5839 5839 5838 5838 5837 5836 5835 5833 5832 5830 5829 5827 5827 5827 5827 5826 5825 5825 5824 5823 5822 5821
5767 5770 5772 5774 5775 5777 5781 5783 5785 5786 5788 5790 5793 5795 5797 5799 5802 5804 5805 5807 5809 5811 5812 5813 5815 5816 5818 5821 5823 5824 5825 5826 5828 5830 5831 5833 5833 5834 5834 5835 5836 5837 5837 5838 5838 5838 5838 5838 5839 5839 5840 5841 5841 5842 5842 5842 5842 5843 5843 5843 5844 5844 5844 5845 5845 5845 5845 5844 5843 5843 5842 5842 5841 5840 5839 5838 5837 5837 5836 5835 5834 5833 5832 5831 5829 5827 5826 5825 5826 5826 5825 5823 5823 5822 5821 5820 5819
5764 5767 5770 5772 5773 5776 5779 5781 5782 5784 5785 5788 5790 5792 5795 5798 5800 5802 5803 5806 5808 5809 5810 5811 5813 5815 5818 5820 5821 5821 5823 5824 5825 5827 5829 5830 5831 5832 5832 5833 5834 5835 5835 5836 5836 5837 5837 5837 5837 5838 5839 5839 5840 5840 5840 5840 5840 5841 5842 5842 5842 5843 5844 5844 5844 5844 5843 5843 5842 5842 5841 5841 5840 5839 5838 5837 5836 5835 5834 5833 5832 5831 5830 5829 5828 5826 5825 5824 5824 5824 5823 5822 5821 5820 5819 5818 5817
5761 5764 5768 5770 5771 5774 5777 5779 5780 5782 5783 5785 5788 5790 5793 5795 5798 5799 5802 5805 5806 5807 5808 5810 5812 5814 5816 5818 5818 5820 5822 5822 5823 5825 5827 5828 5829 5830 5831 5831 5832 5833 5833 5834 5835 5835 5835 5835 5836 5837 5837 5837 5838 5838 5838 5839 5839 5840 5840 5841 5842 5842 5843 5843 5842 5842 5842 5841 5841 5841 5840 5839 5838 5838 5837 5836 5836 5834 5833 5832 5830 5829 5828 5827 5826 5825 5824 5823 5822 5822 5820 5820 5819 5818 5817 5816 5815
5758 5761 5765 5767 5768 5771 5775 5776 5778 5780 5781 5783 5787 5789 5790 5793 5796 5798 5801 5803 5805 5805 5807 5809 5811 5813 5814 5815 5817 5818 5820 5820 5822 5823 5825 5826 5827 5828 5829 5829 5830 5831 5832 5832 5833 5833 5834 5834 5834 5835 5835 5836 5836 5837 5837 5838 5838 5839 5839 5840 5841 5841 5841 5841 5841 5841 5840 5840 5839 5839 5839 5838 5837 5836 5836 5835 5834 5834 5832 5831 5829 5827 5826 5824 5823 5822 5822 5821 5821 5819 5818 5818 5817 5816 5815 5813 5812
5755 5758 5762 5763 5765 5769 5773 5774 5776 5778 5780 5782 5785 5787 5789 5792 5795 5798 5800 5802 5803 5804 5805 5808 5810 5811 5812 5813 5815 5816 5818 5819 5820 5821 5823 5824 5825 5826 5827 5827 5828 5829 5830 5831 5831 5832 5832 5832 5832 5833 5834 5834 5835 5836 5837 5837 5837 5838 5839 5839 5840 5840 5840 5840 5839 5839 5839 5838 5838 5837 5837 5836 5836 5835 5835 5834 5833 5832 5831 5830 5828 5826 5825 5823 5821 5820 5819 5819 5819 5818 5817 5816 5815 5814 5813 5812 5810
5752 5755 5759 5761 5763 5767 5771 5773 5774 5776 5778 5780 5783 5786 5788 5791 5794 5797 5798 5800 5801 5803 5804 5806 5808 5809 5810 5811 5812 5814 5815 5817 5818 5820 5821 5822 5823 5824 5825 5826 5827 5828 5829 5829 5830 5830 5830 5830 5831 5831 5832 5833 5834 5834 5835 5836 5836 5837 5837 5838 5838 5838 5838 5838 5838 5838 5838 5837 5836 5836 5835 5834 5834 5834 5833 5832 5832 5831 5830 5829 5827 5825 5824 5822 5821 5819 5818 5817 5816 5815 5814 5813 5812 5812 5811 5810 5808
5749 5752 5756 5758 5761 5764 5768 5771 5772 5774 5776 5778 5781 5785 5788 5790 5793 5794 5795 5797 5799 5800 5802 5804 5806 5806 5807 5809 5810 5812 5814 5815 5817 5818 5819 5820 5821 5822 5823 5825 5826 5827 5827 5828 5828 5828 5828 5829 5829 5829 5830 5831 5832 5833 5833 5834 5835 5836 5836 5836 5837 5837 5836 5836 5836 5836 5836 5835 5835 5834 5834 5833 5832 5832 5831 5831 5830 5829 5828 5827 5826 5824 5823 5821 5820 5818 5817 5815 5814 5813 5812 5811 5810 5808 5808 5807 5806
5746 5749 5753 5756 5759 5762 5765 5769 5772 5773 5774 5777 5780 5784 5787 5789 5791 5792 5793 5794 5795 5798 5800 5802 5803 5804 5805 5807 5809 5811 5812 5813 5815 5816 5817 5818 5819 5821 5822 5824 5825 5825 5826 5826 5826 5826 5827 5827 5827 5828 5829 5830 5831 5831 5832 5833 5834 5834 5835 5835 5835 5835 5835 5835 5834 5834 5834 5833 5833 5833 5832 5832 5831 5830 5829 5829 5828 5828 5827 5826 5824 5823 5822 5820 5819 5817 5815 5814 5812 5811 5809 5808 5807 5806 5805 5804 5803
5745 5748 5752 5755 5758 5760 5763 5767 5771 5772 5773 5775 5778 5782 5785 5787 5788 5789 5790 5791 5794 5797 5799 5800 5801 5802 5803 5805 5808 5809 5810 5812 5813 5814 5816 5817 5818 5820 5821 5822 5823 5824 5824 5824 5824 5825 5825 5825 5825 5826 5827 5828 5829 5830 5831 5832 5833 5833 5833 5833 5834 5834 5834 5833 5833 5832 5831 5831 5831 5831 5831 5830 5829 5828 5827 5827 5827 5826 5825 5824 5822 5821 5820 5819 5817 5815 5814 5812 5810 5809 5807 5806 5804 5803 5802 5801 5800
5745 5748 5751 5754 5757 5758 5760 5764 5768 5769 5771 5773 5776 5779 5782 5784 5785 5787 5788 5789 5792 5795 5796 5796 5797 5799 5801 5803 5806 5808 5808 5810 5811 5812 5814 5815 5817 5819 5820 5820 5821 5822 5822 5823 5823 5823 5823 5823 5824 5824 5825 5826 5828 5829 5830 5831 5832 5832 5832 5832 5832 5832 5832 5832 5831 5830 5830 5830 5830 5829 5829 5828 5827 5826 5826 5825 5825 5824 5823 5822 5820 5819 5818 5817 5815 5814 5812 5810 5808 5806 5805 5804 5802 5800 5799 5798 5796
5742 5745 5748 5751 5754 5756 5758 5762 5765 5767 5769 5771 5774 5776 5778 5781 5783 5785 5785 5787 5790 5793 5795 5796 5796 5797 5799 5802 5804 5806 5806 5807 5809 5810 5812 5814 5816 5817 5818 5818 5819 5820 5821 5821 5821 5821 5821 5822 5822 5823 5823 5825 5827 5828 5829 5830 5830 5831 5831 5831 5831 5831 5831 5831 5830 5829 5828 5828 5828 5827 5827 5826 5825 5825 5824 5823 5823 5822 5821 5820 5818 5817 5816 5815 5813 5811 5809 5807 5805 5803 5802 5800 5799 5798 5796 5795 5793
5739 5742 5745 5748 5751 5754 5756 5759 5762 5765 5767 5770 5772 5773 5776 5779 5781 5782 5782 5784 5788 5791 5794 5796 5796 5795 5797 5800 5802 5803 5804 5805 5807 5809 5810 5812 5813 5814 5815 5816 5818 5819 5819 5819 5819 5819 5820 5820 5821 5821 5822 5824 5826 5827 5828 5829 5829 5830 5830 5830 5830 5830 5829 5829 5828 5828 5827 5827 5826 5826 5825 5824 5823 5823 5822 5821 5820 5820 5818 5817 5816 5815 5813 5812 5810 5808 5807 5805 5802 5800 5798 5797 5795 5794 5793 5792 5790
5735 5739 5742 5746 5749 5752 5754 5756 5759 5762 5765 5767 5770 5772 5773 5776 5778 5779 5780 5782 5785 5788 5790 5793 5795 5795 5795 5797 5799 5800 5801 5803 5805 5807 5808 5809 5810 5811 5813 5814 5816 5817 5817 5817 5818 5818 5818 5819 5819 5820 5821 5823 5824 5826 5827 5827 5828 5828 5829 5829 5829 5828 5828 5828 5827 5826 5825 5825 5825 5824 5823 5822 5821 5821 5820 5819 5818 5817 5816 5815 5814 5812 5811 5809 5808 5806 5804 5802 5799 5797 5795 5793 5791 5790 5789 5788 5786
5732 5735 5739 5744 5748 5750 5751 5754 5757 5760 5763 5765 5767 5769 5771 5773 5774 5776 5777 5778 5781 5785 5787 5788 5791 5793 5791 5791 5793 5795 5797 5800 5803 5805 5806 5807 5808 5809 5810 5812 5814 5814 5815 5816 5816 5816 5817 5817 5818 5819 5821 5822 5823 5824 5825 5826 5827 5827 5828 5828 5827 5827 5827 5827 5826 5825 5824 5823 5823 5823 5822 5821 5820 5819 5818 5817 5816 5815 5814 5813 5811 5809 5808 5806 5805 5803 5801 5799 5796 5794 5791 5789 5787 5786 5784 5783 5781
5729 5733 5738 5743 5746 5748 5750 5752 5754 5758 5761 5763 5764 5766 5767 5769 5771 5773 5774 5776 5778 5783 5786 5786 5789 5792 5791 5788 5787 5790 5794 5798 5800 5802 5804 5805 5805 5807 5808 5810 5811 5812 5813 5814 5814 5815 5816 5816 5817 5818 5820 5821 5822 5823 5824 5825 5826 5826 5826 5826 5826 5826 5825 5825 5824 5824 5823 5822 5821 5821 5820 5819 5818 5817 5816 5815 5814 5812 5811 5810 5808 5807 5805 5803 5802 5800 5798 5795 5793 5790 5788 5785 5783 5781 5778 5777 5776
5727 5731 5737 5742 5744 5746 5748 5749 5752 5755 5758 5760 5761 5762 5762 5765 5768 5770 5773 5774 5777 5781 5784 5786 5788 5791 5793 5792 5787 5787 5793 5797 5798 5800 5801 5802 5804 5805 5806 5807 5809 5810 5811 5812 5813 5814 5815 5815 5816 5817 5818 5820 5821 5822 5823 5823 5824 5824 5825 5824 5824 5824 5824 5824 5823 5822 5822 5821 5820 5819 5818 5818 5816 5815 5814 5812 5811 5810 5809 5807 5806 5804 5802 5801 5799 5797 5795 5792 5789 5787 5784 5781 5778 5775 5772 5770 5769
5724 5729 5736 5740 5742 5744 5745 5747 5749 5752 5755 5756 5757 5757 5758 5761 5765 5767 5770 5772 5775 5779 5782 5785 5788 5790 5793 5795 5790 5787 5792 5796 5797 5798 5799 5800 5802 5802 5803 5805 5806 5808 5810 5811 5812 5813 5814 5814 5815 5816 5817 5819 5820 5821 5821 5822 5822 5823 5823 5823 5823 5823 5822 5822 5822 5821 5820 5819 5818 5817 5816 5815 5814 5813 5812 5811 5810 5808 5807 5805 5804 5802 5800 5798 5796 5794 5792 5789 5786 5784 5780 5777 5773 5770 5767 5764 5763
5722 5728 5734 5736 5739 5741 5743 5744 5746 5750 5752 5752 5753 5754 5755 5758 5762 5764 5767 5769 5772 5777 5780 5783 5786 5789 5791 5794 5793 5788 5789 5794 5795 5797 5798 5799 5800 5801 5802 5804 5805 5807 5808 5809 5811 5812 5813 5814 5815 5815 5816 5817 5818 5819 5819 5820 5821 5822 5822 5822 5821 5821 5820 5820 5819 5819 5818 5817 5816 5815 5814 5813 5812 5811 5810 5809 5808 5807 5805 5804 5802 5801 5798 5796 5794 5792 5789 5786 5783 5780 5776 5772 5768 5765 5762 5758 5757
5722 5727 5731 5733 5736 5739 5740 5741 5744 5747 5748 5748 5750 5751 5753 5756 5759 5762 5764 5766 5771 5775 5778 5781 5784 5787 5788 5792 5794 5789 5788 5792 5794 5795 5797 5798 5799 5801 5802 5803 5804 5806 5807 5808 5809 5811 5812 5812 5813 5814 5815 5816 5817 5817 5818 5819 5820 5821 5820 5820 5820 5819 5819 5818 5817 5816 5816 5815 5814 5813 5812 5811 5810 5809 5809 5808 5807 5805 5804 5802 5801 5798 5796 5794 5792 5789 5787 5784 5780 5777 5772 5768 5764 5760 5757 5754 5752
5722 5725 5727 5731 5734 5736 5737 5737 5740 5743 5742 5745 5748 5749 5750 5754 5757 5760 5762 5766 5771 5775 5777 5780 5782 5784 5786 5789 5792 5789 5788 5791 5793 5795 5796 5798 5799 5800 5801 5802 5803 5804 5806 5807 5808 5809 5810 5811 5812 5813 5814 5815 5816 5816 5817 5818 5819 5819 5819 5818 5818 5817 5816 5815 5814 5813 5813 5813 5812 5811 5810 5809 5808 5807 5807 5806 5805 5803 5802 5800 5798 5796 5794 5792 5790 5787 5784 5780 5777 5773 5768 5764 5760 5756 5753 5750 5747
5719 5722 5725 5728 5731 5733 5733 5734 5738 5738 5738 5743 5746 5746 5747 5751 5755 5758 5762 5768 5772 5774 5776 5778 5779 5782 5784 5788 5789 5789 5789 5791 5792 5794 5796 5797 5798 5799 5799 5800 5801 5803 5804 5805 5807 5808 5809 5810 5811 5812 5812 5813 5814 5815 5815 5816 5817 5817 5816 5816 5815 5815 5814 5813 5812 5811 5811 5811 5810 5809 5808 5808 5807 5806 5805 5804 5802 5801 5800 5798 5796 5794 5792 5790 5787 5784 5781 5777 5773 5769 5764 5760 5756 5753 5750 5746 5743
5715 5718 5721 5725 5727 5729 5730 5731 5734 5732 5735 5742 5744 5744 5745 5748 5754 5759 5763 5768 5771 5772 5774 5776 5778 5780 5784 5786 5788 5788 5788 5789 5791 5793 5794 5796 5796 5797 5798 5799 5800 5801 5802 5804 5805 5806 5807 5808 5809 5810 5811 5811 5812 5812 5813 5814 5814 5814 5814 5814 5813 5812 5812 5811 5811 5810 5809 5809 5808 5808 5807 5806 5805 5803 5802 5801 5800 5798 5797 5795 5794 5791 5789 5787 5784 5781 5778 5774 5771 5766 5761 5757 5753 5749 5746 5743 5739
5711 5714 5717 5719 5722 5724 5725 5727 5728 5728 5734 5741 5742 5742 5743 5746 5753 5758 5761 5766 5768 5769 5772 5775 5777 5780 5782 5785 5786 5786 5787 5788 5789 5791 5793 5794 5795 5796 5796 5797 5798 5799 5800 5801 5803 5804 5805 5806 5807 5808 5809 5810 5810 5811 5811 5812 5812 5812 5812 5812 5811 5811 5810 5810 5809 5808 5808 5807 5806 5805 5804 5803 5802 5801 5800 5798 5797 5795 5794 5792 5791 5788 5786 5784 5781 5779 5776 5772 5768 5764 5759 5754 5750 5746 5743 5740 5736
5707 5710 5712 5714 5716 5718 5720 5723 5724 5727 5734 5739 5740 5740 5741 5744 5751 5755 5759 5763 5765 5767 5769 5772 5775 5777 5780 5782 5783 5784 5785 5786 5787 5789 5791 5792 5793 5794 5794 5795 5796 5796 5797 5799 5801 5802 5803 5804 5805 5806 5807 5808 5809 5809 5809 5810 5810 5810 5809 5809 5809 5808 5808 5807 5807 5806 5806 5805 5804 5803 5802 5801 5799 5798 5797 5795 5794 5792 5791 5789 5788 5786 5784 5782 5779 5776 5773 5770 5766 5761 5756 5752 5747 5743 5740 5737 5734
5706 5708 5711 5713 5714 5716 5718 5721 5723 5727 5733 5737 5738 5738 5738 5742 5749 5754 5758 5761 5763 5765 5768 5770 5772 5774 5776 5779 5780 5782 5783 5784 5786 5787 5789 5790 5791 5792 5793 5794 5794 5795 5796 5797 5798 5800 5801 5802 5803 5804 5806 5806 5807 5807 5808 5808 5808 5808 5807 5807 5807 5806 5806 5805 5805 5804 5803 5803 5802 5800 5799 5798 5797 5795 5794 5793 5791 5790 5788 5787 5785 5783 5781 5779 5777 5774 5771 5767 5763 5759 5754 5750 5745 5741 5738 5735 5732
5704 5706 5708 5710 5713 5716 5718 5721 5723 5727 5732 5735 5736 5735 5736 5741 5748 5753 5756 5759 5761 5764 5766 5768 5770 5772 5774 5776 5777 5779 5781 5782 5784 5786 5787 5788 5789 5791 5792 5793 5793 5794 5794 5795 5797 5798 5799 5800 5801 5803 5804 5804 5805 5805 5806 5806 5806 5806 5806 5805 5805 5805 5804 5804 5803 5802 5801 5800 5799 5797 5796 5795 5794 5793 5791 5790 5788 5787 5786 5784 5782 5781 5779 5776 5774 5772 5768 5765 5761 5758 5753 5749 5744 5740 5737 5734 5732
5699 5702 5705 5709 5713 5715 5717 5720 5722 5725 5729 5732 5733 5733 5736 5741 5746 5750 5753 5756 5759 5762 5764 5766 5768 5770 5771 5773 5774 5776 5778 5780 5782 5784 5786 5787 5788 5790 5791 5792 5792 5792 5793 5794 5795 5796 5797 5798 5800 5801 5802 5802 5803 5803 5804 5804 5804 5804 5804 5804 5803 5803 5802 5802 5801 5800 5798 5797 5796 5794 5793 5792 5791 5790 5788 5787 5786 5785 5783 5782 5780 5778 5776 5774 5772 5769 5766 5763 5760 5756 5752 5748 5743 5739 5736 5733 5731
5697 5701 5704 5709 5712 5713 5715 5718 5720 5722 5725 5728 5730 5732 5735 5739 5743 5748 5751 5754 5756 5760 5762 5764 5765 5767 5768 5770 5772 5774 5776 5779 5780 5782 5784 5785 5787 5788 5789 5790 5791 5791 5792 5792 5793 5794 5795 5797 5798 5799 5800 5800 5801 5801 5802 5802 5802 5802 5802 5802 5801 5801 5800 5799 5798 5797 5795 5794 5793 5792 5791 5790 5789 5787 5786 5784 5783 5782 5781 5779 5778 5776 5774 5772 5769 5767 5764 5761 5758 5755 5751 5747 5742 5738 5735 5733 5731
5696 5699 5703 5707 5709 5710 5712 5715 5717 5720 5722 5725 5728 5731 5733 5736 5740 5746 5750 5753 5755 5758 5760 5762 5763 5765 5767 5769 5773 5774 5775 5777 5779 5781 5783 5784 5785 5787 5788 5788 5789 5790 5790 5791 5791 5792 5794 5795 5796 5797 5797 5798 5798 5799 5800 5800 5800 5799 5799 5799 5799 5798 5797 5796 5795 5794 5793 5791 5790 5789 5788 5787 5786 5784 5783 5782 5780 5779 5778 5777 5775 5773 5771 5769 5767 5764 5762 5759 5756 5753 5750 5746 5742 5738 5735 5732 5731
5692 5695 5700 5705 5707 5708 5712 5714 5716 5718 5721 5723 5726 5728 5731 5735 5740 5745 5750 5752 5754 5756 5759 5761 5762 5765 5766 5768 5771 5773 5774 5776 5777 5778 5780 5782 5783 5785 5786 5786 5787 5788 5789 5790 5790 5791 5792 5793 5794 5794 5795 5795 5796 5797 5797 5797 5797 5797 5797 5796 5796 5795 5794 5793 5792 5791 5790 5789 5788 5787 5786 5784 5783 5782 5780 5779 5778 5777 5775 5774 5773 5771 5769 5767 5764 5762 5760 5757 5755 5752 5748 5745 5741 5738 5735 5732 5730
5690 5693 5698 5701 5703 5706 5711 5713 5715 5717 5720 5722 5724 5727 5731 5735 5739 5744 5748 5751 5753 5755 5757 5759 5761 5763 5765 5767 5769 5771 5773 5774 5775 5776 5778 5779 5781 5782 5783 5784 5785 5786 5787 5788 5789 5790 5790 5791 5791 5791 5792 5793 5794 5794 5794 5794 5794 5794 5794 5793 5792 5792 5791 5790 5790 5789 5788 5787 5786 5785 5783 5782 5780 5779 5778 5776 5775 5774 5773 5771 5770 5768 5766 5764 5762 5760 5758 5755 5753 5750 5747 5744 5741 5738 5735 5732 5730
5691 5694 5697 5699 5701 5704 5707 5709 5712 5715 5717 5720 5722 5725 5730 5734 5738 5742 5746 5748 5751 5752 5754 5757 5759 5762 5764 5765 5767 5770 5771 5772 5773 5774 5775 5776 5778 5779 5780 5781 5782 5783 5784 5785 5786 5787 5787 5787 5788 5789 5790 5791 5791 5791 5791 5791 5791 5791 5790 5790 5790 5789 5789 5788 5787 5787 5786 5785 5784 5782 5781 5779 5778 5776 5775 5774 5772 5771 5770 5768 5767 5766 5764 5762 5760 5758 5755 5753 5751 5748 5746 5743 5740 5737 5735 5732 5729